Location: Handeloh
(53.2500°N, 9.8330°E)
Time: 13:58:24
(UTC+01:00)

S-56A Canister/Altair - Pass Details

Date: 18 November 2019
Orbit: 633 x 2499 km, 38.9° (Epoch: 06 December)

Event Time Altitude Azimuth Distance (km) Brightness Sun altitude
Rises 19:00:34 0° 239° (WSW) 4,669 12.5 -23.5°
Reaches altitude 10° 19:04:48 10° 227° (SW) 3,330 11.4 -24.1°
Maximum altitude 19:10:37 23° 180° (S) 2,061 9.7 -25.0°
Enters shadow 19:12:08 21° 160° (SSE) 2,041 9.5 -25.2°
Drops below altitude 10° 19:15:05 10° 129° (SE) 2,487 - -25.6°
Sets 19:17:44 0° 114° (ESE) 3,237 - -26.0°
